• In Kazakhstan
  • List of Countries
  • For 7 days
  • Water Temperature
  • Satellite Maps
  • Weather Map
  • News
  • Weather Widgets
  • user-avatar
    Login

    Hourly Weather Benguela

    Today, 20 March, Wednesday

    Time Temperature Precipitation Wind Pressure Humidity
    00:00 +30°C° 0 mm 2 mps 757 mmHg 77%
    01:00 +29°C° 0 mm 1 mps 757 mmHg 80%
    02:00 +29°C° 0 mm 1 mps 757 mmHg 80%
    03:00 +29°C° 0 mm 1 mps 757 mmHg 80%
    04:00 +29°C° 0 mm 1 mps 756 mmHg 79%
    05:00 +29°C° 0 mm 1 mps 757 mmHg 78%
    06:00 +29°C° 0 mm 1 mps 757 mmHg 77%
    07:00 +30°C° 0 mm 1 mps 757 mmHg 75%
    08:00 +31°C° 0 mm 1 mps 757 mmHg 70%
    09:00 +34°C° 0 mm 2 mps 757 mmHg 64%
    10:00 +35°C° 0 mm 2 mps 757 mmHg 59%
    11:00 +36°C° 0 mm 3 mps 756 mmHg 58%
    12:00 +36°C° 0 mm 4 mps 756 mmHg 58%
    13:00 +37°C° 0 mm 4 mps 756 mmHg 57%
    14:00 +36°C° 0.9 mm 4 mps 755 mmHg 60%
    15:00 +35°C° 0.9 mm 4 mps 755 mmHg 62%
    16:00 +34°C° 0.9 mm 3 mps 755 mmHg 65%
    17:00 +33°C° 1.2 mm 3 mps 755 mmHg 69%
    18:00 +31°C° 1.2 mm 2 mps 755 mmHg 74%
    19:00 +30°C° 1.2 mm 2 mps 756 mmHg 78%
    20:00 +29°C° 1.1 mm 2 mps 756 mmHg 80%
    21:00 +29°C° 1.1 mm 1 mps 757 mmHg 81%
    22:00 +29°C° 1.1 mm 1 mps 758 mmHg 83%
    23:00 +29°C° 0.2 mm 1 mps 758 mmHg 82%

    Tomorrow, 21 March, Thursday

    Time Temperature Precipitation Wind Pressure Humidity
    00:00 +29°C° 0.2 mm 1 mps 758 mmHg 81%
    01:00 +30°C° 0.2 mm 1 mps 758 mmHg 79%
    02:00 +29°C° 0 mm 1 mps 757 mmHg 81%
    03:00 +27°C° 0 mm 0 mps 757 mmHg 82%
    04:00 +27°C° 0 mm 0 mps 756 mmHg 83%
    05:00 +27°C° 0 mm 0 mps 757 mmHg 81%
    06:00 +27°C° 0 mm 0 mps 757 mmHg 80%
    07:00 +30°C° 0 mm 1 mps 757 mmHg 79%
    08:00 +29°C° 0 mm 0 mps 757 mmHg 73%
    09:00 +30°C° 0 mm 0 mps 758 mmHg 67%
    10:00 +31°C° 0 mm 0 mps 758 mmHg 61%
    11:00 +35°C° 0 mm 2 mps 757 mmHg 57%
    12:00 +36°C° 0 mm 3 mps 757 mmHg 53%
    13:00 +38°C° 0 mm 4 mps 756 mmHg 48%
    14:00 +37°C° 0 mm 4 mps 756 mmHg 52%
    15:00 +36°C° 0 mm 4 mps 755 mmHg 55%
    16:00 +36°C° 0 mm 4 mps 754 mmHg 59%
    17:00 +34°C° 0 mm 3 mps 755 mmHg 64%
    18:00 +32°C° 0 mm 2 mps 756 mmHg 68%
    19:00 +31°C° 0 mm 2 mps 756 mmHg 73%
    20:00 +31°C° 0.1 mm 2 mps 757 mmHg 75%
    21:00 +30°C° 0.1 mm 2 mps 757 mmHg 76%
    22:00 +30°C° 0.1 mm 3 mps 758 mmHg 78%
    23:00 +30°C° 0 mm 3 mps 758 mmHg 77%

    Day after tomorrow, 22 March, Friday

    Time Temperature Precipitation Wind Pressure Humidity
    00:00 +31°C° 0 mm 3 mps 758 mmHg 75%
    01:00 +31°C° 0 mm 3 mps 757 mmHg 74%
    02:00 +31°C° 0 mm 2 mps 757 mmHg 73%
    03:00 +30°C° 0 mm 2 mps 756 mmHg 73%
    04:00 +30°C° 0 mm 2 mps 756 mmHg 72%
    05:00 +30°C° 0 mm 2 mps 756 mmHg 72%
    06:00 +30°C° 0 mm 2 mps 756 mmHg 71%
    07:00 +30°C° 0 mm 2 mps 756 mmHg 70%
    08:00 +34°C° 0 mm 2 mps 757 mmHg 61%
    09:00 +35°C° 0 mm 1 mps 757 mmHg 52%
    10:00 +37°C° 0 mm 1 mps 757 mmHg 44%
    11:00 +39°C° 0 mm 2 mps 757 mmHg 43%
    12:00 +41°C° 0 mm 4 mps 756 mmHg 42%
    13:00 +41°C° 0 mm 5 mps 756 mmHg 41%
    14:00 +40°C° 0 mm 4 mps 755 mmHg 47%
    15:00 +37°C° 0 mm 4 mps 755 mmHg 53%
    16:00 +36°C° 0 mm 4 mps 754 mmHg 59%
    17:00 +35°C° 0.2 mm 3 mps 755 mmHg 63%
    18:00 +34°C° 0.2 mm 3 mps 755 mmHg 67%
    19:00 +32°C° 0.2 mm 2 mps 756 mmHg 70%
    20:00 +32°C° 0.3 mm 2 mps 757 mmHg 72%
    21:00 +31°C° 0.3 mm 1 mps 758 mmHg 73%
    22:00 +31°C° 0.3 mm 1 mps 758 mmHg 74%
    23:00 +31°C° 0 mm 1 mps 758 mmHg 74%

    23 March, Saturday

    Time Temperature Precipitation Wind Pressure Humidity
    00:00 +31°C° 0 mm 2 mps 758 mmHg 74%
    01:00 +31°C° 0 mm 3 mps 758 mmHg 74%
    02:00 +30°C° 0 mm 3 mps 757 mmHg 75%
    03:00 +30°C° 0 mm 2 mps 756 mmHg 77%
    04:00 +29°C° 0 mm 2 mps 756 mmHg 79%
    05:00 +29°C° 0 mm 2 mps 756 mmHg 78%
    06:00 +29°C° 0 mm 2 mps 757 mmHg 78%
    07:00 +29°C° 0 mm 1 mps 758 mmHg 77%
    08:00 +31°C° 0 mm 1 mps 758 mmHg 71%
    09:00 +32°C° 0 mm 1 mps 758 mmHg 65%
    10:00 +34°C° 0 mm 1 mps 758 mmHg 59%
    11:00 +35°C° 0 mm 2 mps 757 mmHg 58%
    12:00 +36°C° 0 mm 4 mps 757 mmHg 57%
    13:00 +37°C° 0 mm 5 mps 756 mmHg 56%
    14:00 +36°C° 0 mm 4 mps 756 mmHg 59%
    15:00 +35°C° 0 mm 4 mps 755 mmHg 63%
    16:00 +34°C° 0 mm 4 mps 755 mmHg 66%
    17:00 +33°C° 0 mm 3 mps 755 mmHg 68%
    18:00 +31°C° 0 mm 3 mps 756 mmHg 70%
    19:00 +30°C° 0 mm 2 mps 757 mmHg 72%
    20:00 +30°C° 0.3 mm 2 mps 757 mmHg 73%
    21:00 +30°C° 0.3 mm 2 mps 758 mmHg 74%
    22:00 +29°C° 0.3 mm 1 mps 758 mmHg 75%
    23:00 +30°C° 0 mm 2 mps 758 mmHg 75%

    24 March, Sunday

    Time Temperature Precipitation Wind Pressure Humidity
    00:00 +30°C° 0 mm 2 mps 758 mmHg 75%
    01:00 +30°C° 0 mm 2 mps 757 mmHg 75%
    02:00 +29°C° 0 mm 2 mps 757 mmHg 77%
    03:00 +29°C° 0 mm 1 mps 757 mmHg 79%
    04:00 +28°C° 0 mm 1 mps 756 mmHg 81%
    05:00 +29°C° 0 mm 1 mps 757 mmHg 80%
    06:00 +27°C° 0 mm 0 mps 757 mmHg 80%
    07:00 +27°C° 0 mm 0 mps 758 mmHg 79%
    08:00 +30°C° 0 mm 1 mps 758 mmHg 73%
    09:00 +31°C° 0 mm 1 mps 758 mmHg 68%
    10:00 +32°C° 0 mm 2 mps 758 mmHg 62%
    11:00 +34°C° 0 mm 3 mps 758 mmHg 60%
    12:00 +35°C° 0 mm 3 mps 757 mmHg 58%
    13:00 +35°C° 0 mm 4 mps 756 mmHg 56%
    14:00 +35°C° 0 mm 4 mps 756 mmHg 59%
    15:00 +34°C° 0 mm 4 mps 756 mmHg 61%
    16:00 +34°C° 0 mm 3 mps 756 mmHg 64%
    17:00 +33°C° 0 mm 3 mps 756 mmHg 69%
    18:00 +31°C° 0 mm 2 mps 757 mmHg 74%
    19:00 +30°C° 0 mm 1 mps 758 mmHg 78%
    20:00 +30°C° 0 mm 1 mps 758 mmHg 79%
    21:00 +30°C° 0 mm 1 mps 758 mmHg 79%
    22:00 +30°C° 0 mm 1 mps 758 mmHg 79%
    23:00 +29°C° 0 mm 1 mps 758 mmHg 80%

    25 March, Monday

    Time Temperature Precipitation Wind Pressure Humidity
    00:00 +29°C° 0 mm 1 mps 757 mmHg 80%
    01:00 +29°C° 0 mm 1 mps 757 mmHg 81%
    02:00 +29°C° 0 mm 2 mps 757 mmHg 81%
    03:00 +29°C° 0 mm 2 mps 756 mmHg 81%
    04:00 +29°C° 0 mm 2 mps 756 mmHg 81%
    05:00 +29°C° 0 mm 1 mps 757 mmHg 79%
    06:00 +29°C° 0 mm 1 mps 757 mmHg 78%
    07:00 +29°C° 0 mm 1 mps 757 mmHg 76%
    08:00 +31°C° 0 mm 1 mps 757 mmHg 69%
    09:00 +33°C° 0 mm 1 mps 757 mmHg 62%
    10:00 +34°C° 0 mm 1 mps 757 mmHg 56%
    11:00 +36°C° 0 mm 3 mps 757 mmHg 54%
    12:00 +37°C° 0 mm 4 mps 756 mmHg 53%
    13:00 +37°C° 0 mm 5 mps 755 mmHg 52%
    14:00 +37°C° 0 mm 4 mps 755 mmHg 55%
    15:00 +36°C° 0 mm 4 mps 755 mmHg 58%
    16:00 +35°C° 0 mm 4 mps 755 mmHg 62%
    17:00 +34°C° 0 mm 4 mps 755 mmHg 66%
    18:00 +31°C° 0 mm 3 mps 756 mmHg 70%
    19:00 +30°C° 0 mm 3 mps 756 mmHg 75%
    20:00 +30°C° 0.1 mm 2 mps 757 mmHg 76%
    21:00 +30°C° 0.1 mm 2 mps 757 mmHg 77%
    22:00 +29°C° 0.1 mm 1 mps 758 mmHg 78%
    23:00 +29°C° 0.1 mm 1 mps 757 mmHg 78%
    Show more